Location: D�pe
(52.6057°N, 8.1808°E)
Time: 14:23:53
(UTC+00:00)

Cosmos 2278 Rocket - Pass Details

Date: 29 October 2020
Orbit: 840 x 847 km, 71.0° (Epoch: 28 November)

Event Time Altitude Azimuth Distance (km) Brightness Sun altitude
Rises 20:02:16 0° 328° (NNW) 3,413 6.1 -36.2°
Reaches altitude 10° 20:05:03 10° 340° (NNW) 2,476 5.1 -36.6°
Enters shadow 20:07:00 19° 355° (N) 1,918 4.3 -36.8°
